User: anonymous   Login
Location: Whitehorse
(60.7170°N, 135.0500°W)
Time: 09:14:48
(UTC-08:00)
Language:

Cosmos 2219 Rocket - Orbit

View from above orbital plane
View from above orbital plane
View from above satellite
View from above satellite

Ground track
Ground track

The orbit data is extracted from the following two-line orbital elements,

1 22220U 92076B   16043.51486641 -.00000193  00000-0 -72959-4 0  9992
2 22220  71.0013  12.0625 0015082 295.8684 202.6200 14.16391072201296
Epoch (UTC): 12 February 2016 12:21:24
Eccentricity: 0.0015082
inclination: 71.0013°
perigee height: 827 km
apogee height: 848 km
right ascension of ascending node: 12.0625°
argument of perigee: 295.8684°
revolutions per day: 14.16391072
mean anomaly at epoch: 202.6200°
orbit number at epoch: 20129

The dashed part of the orbit path shows where the satellite is in the earth's shadow,  

DLR